Window Rock, AZ

2:29 AM MDT on October 18, 2017 (GMT -0600)
Window Rock

Weather History for KRQE - December, 2012

Change the Weather History Date:

Thursday, December 13, 2012

  Actual Average Record
Temperature  
Mean Temperature 30 °F -  
Max Temperature 53 °F 43 °F 63 °F (2010)
Min Temperature 8 °F 14 °F -22 °F (1961)
Degree Days  
Heating Degree Days 34    
Moisture  
Dew Point 6 °F    
Average Humidity 46    
Maximum Humidity 67    
Minimum Humidity 17    
Precipitation  
Precipitation 0.00 in - - ()
Sea Level Pressure  
Sea Level Pressure 30.00 in    
Wind  
Wind Speed 2 mph (SSW)    
Max Wind Speed 18 mph    
Max Gust Speed 24 mph    
Visibility 10 miles    
Events      
Averages and records for this station are not official NWS values.
T = Trace of Precipitation, MM = Missing Value Source: NWS Daily Summary

Daily Weather History Graph

Daily Weather History Graph

Search for Another Location

Airport or City:

Trip Planner

Search our weather history database for the weather conditions in past years. The results will help you decide how hot, cold, wet, or windy it might be!

Date:

Astronomy

Dec. 13, 2012 Rise Set
Actual Time 7:17 AM MST 5:03 PM MST
Civil Twilight 6:49 AM MST 5:32 PM MST
Nautical Twilight 6:17 AM MST 6:04 PM MST
Astronomical Twilight 5:46 AM MST 6:35 PM MST
Moon 7:29 AM MST (12/13) 5:49 PM MST (12/13)
Length of Visible Light 10h 43m
Length of Day
9h 46m
New Moon, 0% of the Moon is Illuminated
Dec 13
New Moon
Dec 19
First Quarter
Dec 28
Full
Jan 4
Last Quarter
Jan 11
New

Hourly Weather History & Observations

Time (MST) Temp. Windchill Dew Point Humidity Pressure Visibility Wind Dir Wind Speed Gust Speed Precip Events Conditions
12:53 AM 14.0 °F - 1.0 °F 56% 30.03 in 10.0 mi Calm Calm - N/A   Clear
1:53 AM 12.9 °F - 1.0 °F 59% 30.04 in 10.0 mi Calm Calm - N/A   Clear
2:53 AM 12.9 °F - 1.0 °F 59% 30.05 in 10.0 mi Calm Calm - N/A   Clear
3:53 AM 14.0 °F - 1.9 °F 59% 30.06 in 10.0 mi Calm Calm - N/A   Clear
4:53 AM 8.1 °F - -2.0 °F 64% 30.10 in 10.0 mi Calm Calm - N/A   Clear
5:53 AM 8.1 °F - -0.9 °F 67% 30.12 in 10.0 mi Calm Calm - N/A   Clear
6:53 AM 10.9 °F - 1.0 °F 64% 30.12 in 10.0 mi Calm Calm - N/A   Clear
7:53 AM 10.9 °F - 1.0 °F 64% 30.14 in 10.0 mi Calm Calm - N/A   Clear
8:53 AM 19.9 °F - 3.9 °F 50% 30.11 in 10.0 mi Calm Calm - N/A   Clear
9:53 AM 28.0 °F - 7.0 °F 41% 30.08 in 10.0 mi Calm Calm - N/A   Clear
10:53 AM 39.0 °F 35.7 °F 10.0 °F 30% 30.04 in 10.0 mi NW 4.6 mph - N/A   Clear
11:53 AM 46.9 °F - 15.1 °F 28% 30.00 in 10.0 mi SSE 9.2 mph 16.1 mph N/A   Clear
12:53 PM 50.0 °F - 10.9 °F 21% 29.94 in 10.0 mi SSW 11.5 mph 17.3 mph N/A   Clear
1:53 PM 50.0 °F - 10.9 °F 21% 29.91 in 10.0 mi SSW 16.1 mph 21.9 mph N/A   Clear
2:53 PM 53.1 °F - 9.0 °F 17% 29.88 in 10.0 mi SSW 18.4 mph 24.2 mph N/A   Partly Cloudy
5:53 PM 37.0 °F - 10.0 °F 33% 29.97 in 10.0 mi Calm Calm - N/A   Mostly Cloudy
6:53 PM 34.0 °F - 10.9 °F 38% 29.98 in 10.0 mi Calm Calm - N/A   Overcast
7:53 PM 27.0 °F - 7.0 °F 43% 30.01 in 10.0 mi Calm Calm - N/A   Scattered Clouds
8:53 PM 27.0 °F 23.0 °F 9.0 °F 47% 29.94 in 10.0 mi East 3.5 mph - N/A   Clear
9:53 PM 26.1 °F - 9.0 °F 49% 29.89 in 10.0 mi Calm Calm - N/A   Clear
10:53 PM 26.1 °F - 9.0 °F 49% 29.83 in 10.0 mi Calm Calm - N/A   Partly Cloudy
11:53 PM 26.1 °F 20.5 °F 9.0 °F 49% 29.79 in 10.0 mi West 4.6 mph - N/A   Overcast